START_TIME,STEP,MOV.,M29,t_acc.,H22,t_acc.,H26,t_acc.,H30,t_acc.
1986-01-26 21:00:33.160 ,2,0,0.,24.0,0.,24.0,0.,24.0,0.,24.0
1986-01-26 21:00:57.160 ,3,1,0.,24.0,0.,24.0,0.,24.0,0.,24.0
1986-01-26 21:01:21.160 ,3,0,0.,24.0,0.,24.0,0.,24.0,0.,24.0
1986-01-26 21:01:45.160 ,4,1,0.,24.0,0.,24.0,0.,24.0,0.,24.0
1986-01-26 21:02:09.160 ,4,0,0.,24.0,0.,24.0,0.,24.0,0.,24.0
1986-01-26 21:02:33.160 ,5,1,0.,24.0,0.,24.0,0.,24.0,0.,24.0
1986-01-26 21:02:57.160 ,5,0,0.,24.0,0.,24.0,0.,24.0,0.,24.0
1986-01-26 21:03:21.160 ,6,1,0.,24.0,0.,24.0,0.,24.0,0.,24.0
1986-01-26 21:03:45.160 ,6,0,0.,24.0,0.,24.0,0.,24.0,0.,24.0
1986-01-26 21:04:09.160 ,7,1,0.,24.0,0.,24.0,0.,24.0,0.,24.0
1986-01-26 21:04:33.160 ,7,0,0.,24.0,0.,24.0,0.,24.0,0.,24.0
1986-01-26 21:04:57.160 ,7,1,0.,24.0,0.,24.0,0.,24.0,0.,24.0
1986-01-26 21:05:21.160 ,7,0,0.,24.0,0.,24.0,0.,24.0,0.,24.0
1986-01-26 21:05:45.160 ,6,1,0.,24.0,0.,24.0,0.,24.0,0.,24.0
1986-01-26 21:06:09.160 ,6,0,0.,24.0,0.,24.0,0.,24.0,0.,24.0
1986-01-26 21:06:33.160 ,5,1,0.,24.0,0.,24.0,0.,24.0,0.,24.0
1986-01-26 21:06:57.160 ,5,0,0.,24.0,0.,24.0,0.,24.0,0.,24.0
1986-01-26 21:07:21.160 ,4,1,0.,24.0,0.,24.0,0.,24.0,0.,24.0
1986-01-26 21:07:45.160 ,4,0,0.,24.0,0.,24.0,0.,24.0,0.,24.0
1986-01-26 21:08:09.160 ,3,1,0.,24.0,0.,24.0,0.,24.0,0.,24.0
1986-01-26 21:08:33.160 ,3,0,0.,24.0,0.,24.0,0.,24.0,0.,24.0
1986-01-26 21:08:57.160 ,2,1,0.,24.0,0.,24.0,0.,24.0,0.,24.0
1986-01-26 21:09:21.160 ,2,0,0.,24.0,0.,24.0,0.,24.0,0.,24.0
1986-01-26 21:09:45.160 ,1,1,0.,24.0,0.,24.0,0.,24.0,0.,24.0
1986-01-26 21:10:09.160 ,1,0,0.,24.0,0.,24.0,0.,24.0,0.,24.0
1986-01-26 21:10:33.160 ,0,1,0.,24.0,0.,24.0,0.,24.0,0.,24.0
1986-01-26 21:10:57.160 ,0,0,0.,24.0,0.,24.0,0.,24.0,0.,24.0
1986-01-26 21:11:21.160 ,0,1,0.,24.0,0.,24.0,0.,24.0,0.,24.0
1986-01-26 21:11:45.160 ,0,0,0.,24.0,0.,24.0,0.,24.0,0.,24.0
1986-01-26 21:12:09.160 ,1,1,0.,24.0,0.,24.0,0.,24.0,0.,24.0
1986-01-26 21:12:33.160 ,1,0,0.,24.0,0.,24.0,0.,24.0,0.,24.0
1986-01-26 21:12:57.160 ,2,1,0.,24.0,0.,24.0,0.,24.0,0.,24.0
1986-01-26 21:13:21.160 ,2,0,0.,24.0,0.,24.0,0.,24.0,0.,24.0
1986-01-26 21:13:45.160 ,3,1,0.,24.0,0.,24.0,0.,24.0,0.,24.0
1986-01-26 21:14:09.160 ,3,0,0.,24.0,0.,24.0,0.,24.0,0.,24.0
1986-01-26 21:14:33.160 ,4,1,0.,24.0,0.,24.0,0.,24.0,0.,24.0
1986-01-26 21:14:57.160 ,4,0,0.,24.0,0.,24.0,0.,24.0,0.,24.0
1986-01-26 21:15:21.160 ,5,1,0.,24.0,0.,24.0,0.,24.0,0.,24.0
1986-01-26 21:15:45.160 ,5,0,0.,24.0,0.,24.0,0.,24.0,0.,24.0
1986-01-26 21:16:09.160 ,6,1,0.,24.0,0.,24.0,0.,24.0,0.,24.0
1986-01-26 21:16:33.160 ,6,0,0.,24.0,0.,24.0,0.,24.0,0.,24.0
1986-01-26 21:16:57.160 ,7,1,0.,24.0,0.,24.0,0.,24.0,0.,24.0
1986-01-26 21:17:21.160 ,7,0,0.,24.0,0.,24.0,0.,24.0,0.,24.0
1986-01-26 21:17:45.160 ,7,1,0.,24.0,0.,24.0,0.,24.0,0.,24.0
1986-01-26 21:18:09.160 ,7,0,0.,24.0,0.,24.0,0.,24.0,0.,24.0
1986-01-26 21:18:33.160 ,6,1,0.,24.0,0.,24.0,0.,24.0,0.,24.0
1986-01-26 21:18:57.160 ,6,0,0.,24.0,0.,24.0,0.,24.0,0.,24.0
1986-01-26 21:19:21.160 ,5,1,0.,24.0,0.,24.0,0.,24.0,0.,24.0
1986-01-26 21:19:45.160 ,5,0,0.,24.0,0.,24.0,0.,24.0,0.,24.0
1986-01-26 21:20:09.160 ,4,1,0.,24.0,0.,24.0,0.,24.0,0.,24.0
1986-01-26 21:20:33.160 ,4,0,0.,24.0,0.,24.0,0.,24.0,0.,24.0
1986-01-26 21:20:57.160 ,3,1,0.,24.0,0.,24.0,0.,24.0,0.,24.0
1986-01-26 21:21:21.160 ,3,0,0.,24.0,0.,24.0,0.,24.0,0.,24.0
1986-01-26 21:21:45.160 ,2,1,0.,24.0,0.,24.0,0.,24.0,0.,24.0
1986-01-26 21:22:09.160 ,2,0,0.,24.0,0.,24.0,0.,24.0,0.,24.0
1986-01-26 21:22:33.160 ,1,1,0.,24.0,0.,24.0,0.,24.0,0.,24.0
1986-01-26 21:22:57.160 ,1,0,0.,24.0,0.,24.0,0.,24.0,0.,24.0
1986-01-26 21:23:21.160 ,0,1,0.,24.0,0.,24.0,0.,24.0,0.,24.0
1986-01-26 21:23:45.160 ,0,0,0.,24.0,0.,24.0,0.,24.0,0.,24.0
1986-01-26 21:24:09.160 ,0,1,0.,24.0,0.,24.0,0.,24.0,0.,24.0
1986-01-26 21:24:33.160 ,0,0,0.,24.0,0.,24.0,0.,24.0,0.,24.0
1986-01-26 21:24:57.160 ,1,1,0.,24.0,0.,24.0,0.,24.0,0.,24.0
1986-01-26 21:25:21.160 ,1,0,0.,24.0,0.,24.0,0.,24.0,0.,24.0
1986-01-26 21:25:45.160 ,2,1,0.,24.0,0.,24.0,0.,24.0,0.,24.0
1986-01-26 21:26:09.160 ,2,0,0.,24.0,0.,24.0,0.,24.0,0.,24.0
1986-01-26 21:26:33.160 ,3,1,0.,24.0,0.,24.0,0.,24.0,0.,24.0
1986-01-26 21:26:57.160 ,3,0,0.,24.0,0.,24.0,0.,24.0,0.,24.0
1986-01-26 21:27:21.160 ,4,1,0.,24.0,0.,24.0,0.,24.0,0.,24.0
1986-01-26 21:27:45.160 ,4,0,0.,24.0,0.,24.0,0.,24.0,0.,24.0
1986-01-26 21:28:09.160 ,5,1,0.,24.0,0.,24.0,0.,24.0,0.,24.0
1986-01-26 21:28:33.160 ,5,0,0.,24.0,0.,24.0,0.,24.0,0.,24.0
1986-01-26 21:28:57.160 ,6,1,0.,24.0,0.,24.0,0.,24.0,0.,24.0
1986-01-26 21:29:21.160 ,6,0,0.,24.0,0.,24.0,0.,24.0,0.,24.0
1986-01-26 21:29:45.160 ,7,1,0.,24.0,0.,24.0,0.,24.0,0.,24.0
1986-01-26 21:30:09.160 ,7,0,0.,24.0,0.,24.0,0.,24.0,0.,24.0
1986-01-26 21:30:33.160 ,7,1,0.,24.0,0.,24.0,0.,24.0,0.,24.0
1986-01-26 21:30:57.160 ,7,0,0.,24.0,0.,24.0,0.,24.0,0.,24.0
1986-01-26 21:31:21.160 ,6,1,0.,24.0,0.,24.0,0.,24.0,0.,24.0
1986-01-26 21:31:45.160 ,6,0,0.,24.0,0.,24.0,0.,24.0,0.,24.0
1986-01-26 21:32:09.160 ,5,1,0.,24.0,0.,24.0,0.,24.0,0.,24.0
1986-01-26 21:32:33.160 ,5,0,0.,24.0,0.,24.0,0.,24.0,0.,24.0
1986-01-26 21:32:57.160 ,4,1,0.,24.0,0.,24.0,0.,24.0,0.,24.0
1986-01-26 21:33:21.160 ,4,0,0.,24.0,0.,24.0,0.,24.0,0.,24.0
1986-01-26 21:33:45.160 ,3,1,0.,24.0,0.,24.0,0.,24.0,0.,24.0
1986-01-26 21:34:09.160 ,3,0,0.,24.0,0.,24.0,0.,24.0,0.,24.0
1986-01-26 21:34:33.160 ,2,1,0.,24.0,0.,24.0,0.,24.0,0.,24.0
1986-01-26 21:34:57.160 ,2,0,0.,24.0,0.,24.0,0.,24.0,0.,24.0
1986-01-26 21:35:21.160 ,1,1,0.,24.0,0.,24.0,0.,24.0,0.,24.0
1986-01-26 21:35:45.160 ,1,0,0.,24.0,0.,24.0,0.,24.0,0.,24.0
1986-01-26 21:36:09.160 ,0,1,0.,24.0,0.,24.0,0.,24.0,0.,24.0
1986-01-26 21:36:33.160 ,0,0,0.,24.0,0.,24.0,0.,24.0,0.,24.0
1986-01-26 21:36:57.160 ,0,1,0.,24.0,0.,24.0,0.,24.0,0.,24.0
1986-01-26 21:37:21.160 ,0,0,0.,24.0,0.,24.0,0.,24.0,0.,24.0
1986-01-26 21:37:45.160 ,1,1,0.,24.0,0.,24.0,0.,24.0,0.,24.0
1986-01-26 21:38:09.160 ,1,0,0.,24.0,0.,24.0,0.,24.0,0.,24.0
1986-01-26 21:38:33.160 ,2,1,0.,24.0,0.,24.0,0.,24.0,0.,24.0
1986-01-26 21:38:57.160 ,2,0,0.,24.0,0.,24.0,0.,24.0,0.,24.0
1986-01-26 21:39:21.160 ,3,1,0.,24.0,0.,24.0,0.,24.0,0.,24.0
1986-01-26 21:39:45.160 ,3,0,0.,24.0,0.,24.0,0.,24.0,0.,24.0
1986-01-26 21:40:09.160 ,4,1,0.,24.0,0.,24.0,0.,24.0,0.,24.0
1986-01-26 21:40:33.160 ,4,0,0.,24.0,0.,24.0,0.,24.0,0.,24.0
1986-01-26 21:40:57.160 ,5,1,0.,24.0,0.,24.0,0.,24.0,0.,24.0
1986-01-26 21:41:21.160 ,5,0,0.,24.0,0.,24.0,0.,24.0,0.,24.0
1986-01-26 21:41:45.160 ,6,1,0.,24.0,0.,24.0,0.,24.0,0.,24.0
1986-01-26 21:42:09.160 ,6,0,0.,24.0,0.,24.0,0.,24.0,0.,24.0
1986-01-26 21:42:33.160 ,7,1,0.,24.0,0.,24.0,0.,24.0,0.,24.0
1986-01-26 21:42:57.160 ,7,0,0.,24.0,0.,24.0,0.,24.0,0.,24.0
1986-01-26 21:43:21.160 ,7,1,0.,24.0,0.,24.0,0.,24.0,0.,24.0
1986-01-26 21:43:45.160 ,7,0,0.,24.0,0.,24.0,0.,24.0,0.,24.0
1986-01-26 21:44:09.160 ,6,1,0.,24.0,0.,24.0,0.,24.0,0.,24.0
1986-01-26 21:44:33.160 ,6,0,0.,24.0,0.,24.0,0.,24.0,0.,24.0
1986-01-26 21:44:57.160 ,5,1,0.,24.0,0.,24.0,0.,24.0,0.,24.0
1986-01-26 21:45:21.160 ,5,0,0.,24.0,0.,24.0,0.,24.0,0.,24.0
1986-01-26 21:45:45.160 ,4,1,0.,24.0,0.,24.0,0.,24.0,0.,24.0
1986-01-26 21:46:09.160 ,4,0,0.,24.0,0.,24.0,0.,24.0,0.,24.0
1986-01-26 21:46:33.160 ,3,1,0.,24.0,0.,24.0,0.,24.0,0.,24.0
1986-01-26 21:46:57.160 ,3,0,0.,24.0,0.,24.0,0.,24.0,0.,24.0
1986-01-26 21:47:21.160 ,2,1,0.,24.0,0.,24.0,0.,24.0,0.,24.0
1986-01-26 21:47:45.160 ,2,0,0.,24.0,0.,24.0,0.,24.0,0.,24.0
1986-01-26 21:48:09.160 ,1,1,0.,24.0,0.,24.0,0.,24.0,0.,24.0
1986-01-26 21:48:33.160 ,1,0,0.,24.0,0.,24.0,0.,24.0,0.,24.0
1986-01-26 21:48:57.160 ,0,1,0.,24.0,0.,24.0,0.,24.0,0.,24.0
1986-01-26 21:49:21.160 ,0,0,0.,24.0,0.,24.0,0.,24.0,0.,24.0
1986-01-26 21:49:45.160 ,0,1,0.,24.0,0.,24.0,0.,24.0,0.,24.0
1986-01-26 21:50:09.160 ,0,0,0.,24.0,0.,24.0,0.,24.0,0.,24.0
1986-01-26 21:50:33.160 ,1,1,0.,24.0,0.,24.0,0.,24.0,0.,24.0
1986-01-26 21:50:57.160 ,1,0,0.,24.0,0.,24.0,0.,24.0,0.,24.0
1986-01-26 21:51:21.160 ,2,1,0.,24.0,0.,24.0,0.,24.0,0.,24.0
1986-01-26 21:51:45.160 ,2,0,0.,24.0,0.,24.0,0.,24.0,0.,24.0
1986-01-26 21:52:09.160 ,3,1,0.,24.0,0.,24.0,0.,24.0,0.,24.0
1986-01-26 21:52:33.160 ,3,0,0.,24.0,0.,24.0,0.,24.0,0.,24.0
1986-01-26 21:52:57.160 ,4,1,0.,24.0,0.,24.0,0.,24.0,0.,24.0
1986-01-26 21:53:21.160 ,4,0,0.,24.0,0.,24.0,0.,24.0,0.,24.0
1986-01-26 21:53:45.160 ,5,1,0.,24.0,0.,24.0,0.,24.0,0.,24.0
1986-01-26 21:54:09.160 ,5,0,0.,24.0,0.,24.0,0.,24.0,0.,24.0
1986-01-26 21:54:33.160 ,6,1,0.,24.0,0.,24.0,0.,24.0,0.,24.0
1986-01-26 21:54:57.160 ,6,0,0.,24.0,0.,24.0,0.,24.0,0.,24.0
1986-01-26 21:55:21.160 ,7,1,0.,24.0,0.,24.0,0.,24.0,0.,24.0
1986-01-26 21:55:45.160 ,7,0,0.,24.0,0.,24.0,0.,24.0,0.,24.0
1986-01-26 21:56:09.160 ,7,1,0.,24.0,0.,24.0,0.,24.0,0.,24.0
1986-01-26 21:56:33.160 ,7,0,0.,24.0,0.,24.0,0.,24.0,0.,24.0
1986-01-26 21:56:57.160 ,6,1,0.,24.0,0.,24.0,0.,24.0,0.,24.0
1986-01-26 21:57:21.160 ,6,0,0.,24.0,0.,24.0,0.,24.0,0.,24.0
1986-01-26 21:57:45.160 ,5,1,0.,24.0,0.,24.0,0.,24.0,0.,24.0
1986-01-26 21:58:09.160 ,5,0,0.,24.0,0.,24.0,0.,24.0,0.,24.0
1986-01-26 21:58:33.160 ,4,1,0.,24.0,0.,24.0,0.,24.0,0.,24.0
1986-01-26 21:58:57.160 ,4,0,0.,24.0,0.,24.0,0.,24.0,0.,24.0
1986-01-26 21:59:21.150 ,3,1,0.,24.0,0.,24.0,0.,24.0,0.,24.0
1986-01-26 21:59:45.150 ,3,0,0.,24.0,0.,24.0,0.,24.0,0.,24.0
1986-01-26 22:00:09.150 ,2,1,0.,24.0,0.,24.0,0.,24.0,0.,24.0
1986-01-26 22:00:33.160 ,2,0,0.,24.0,0.,24.0,0.,24.0,0.,24.0
1986-01-26 22:00:57.160 ,1,1,0.,24.0,0.,24.0,0.,24.0,0.,24.0
1986-01-26 22:01:21.150 ,1,0,0.,24.0,0.,24.0,0.,24.0,0.,24.0
1986-01-26 22:01:45.150 ,0,1,0.,24.0,0.,24.0,0.,24.0,0.,24.0
1986-01-26 22:02:09.150 ,0,0,0.,24.0,0.,24.0,0.,24.0,0.,24.0
1986-01-26 22:02:33.160 ,0,1,0.,24.0,0.,24.0,0.,24.0,0.,24.0
1986-01-26 22:02:57.160 ,0,0,0.,24.0,0.,24.0,0.,24.0,0.,24.0
1986-01-26 22:03:21.160 ,1,1,0.,24.0,0.,24.0,0.,24.0,0.,24.0
1986-01-26 22:03:45.160 ,1,0,0.,24.0,0.,24.0,0.,24.0,0.,24.0
1986-01-26 22:04:09.160 ,2,1,0.,24.0,0.,24.0,0.,24.0,0.,24.0
1986-01-26 22:04:33.150 ,2,0,0.,24.0,0.,24.0,0.,24.0,0.,24.0
1986-01-26 22:04:57.150 ,3,1,0.,24.0,0.,24.0,0.,24.0,0.,24.0
1986-01-26 22:05:21.150 ,3,0,0.,24.0,0.,24.0,0.,24.0,0.,24.0
1986-01-26 22:05:45.150 ,4,1,0.,24.0,0.,24.0,0.,24.0,0.,24.0
1986-01-26 22:06:09.150 ,4,0,0.,24.0,0.,24.0,0.,24.0,0.,24.0
1986-01-26 22:06:33.150 ,5,1,0.,24.0,0.,24.0,0.,24.0,0.,24.0
1986-01-26 22:06:57.150 ,5,0,0.,24.0,0.,24.0,0.,24.0,0.,24.0
1986-01-26 22:07:21.150 ,6,1,0.,24.0,0.,24.0,0.,24.0,0.,24.0
1986-01-26 22:07:45.150 ,6,0,0.,24.0,0.,24.0,0.,24.0,0.,24.0
1986-01-26 22:08:09.150 ,7,1,0.,24.0,0.,24.0,0.,24.0,0.,24.0
1986-01-26 22:08:33.160 ,7,0,0.,24.0,0.,24.0,0.,24.0,0.,24.0
1986-01-26 22:08:57.160 ,7,1,0.,24.0,0.,24.0,0.,24.0,0.,24.0
1986-01-26 22:09:21.160 ,7,0,0.,24.0,0.,24.0,0.,24.0,0.,24.0
1986-01-26 22:09:45.160 ,6,1,0.,24.0,0.,24.0,0.,24.0,0.,24.0
1986-01-26 22:10:09.160 ,6,0,0.,24.0,0.,24.0,0.,24.0,0.,24.0
1986-01-26 22:10:33.160 ,5,1,0.,24.0,0.,24.0,0.,24.0,0.,24.0
1986-01-26 22:10:57.160 ,5,0,0.,24.0,0.,24.0,0.,24.0,0.,24.0
1986-01-26 22:11:21.160 ,4,1,0.,24.0,0.,24.0,0.,24.0,0.,24.0
1986-01-26 22:11:45.160 ,4,0,0.,24.0,0.,24.0,0.,24.0,0.,24.0
1986-01-26 22:12:09.160 ,3,1,0.,24.0,0.,24.0,0.,24.0,0.,24.0
1986-01-26 22:12:33.160 ,3,0,0.,24.0,0.,24.0,0.,24.0,0.,24.0
1986-01-26 22:12:57.160 ,2,1,0.,24.0,0.,24.0,0.,24.0,0.,24.0
1986-01-26 22:13:21.160 ,2,0,0.,24.0,0.,24.0,0.,24.0,0.,24.0
1986-01-26 22:13:45.160 ,1,1,0.,24.0,0.,24.0,0.,24.0,0.,24.0
1986-01-26 22:14:09.160 ,1,0,0.,24.0,0.,24.0,0.,24.0,0.,24.0
1986-01-26 22:14:33.150 ,0,1,0.,24.0,0.,24.0,0.,24.0,0.,24.0
1986-01-26 22:14:57.150 ,0,0,0.,24.0,0.,24.0,0.,24.0,0.,24.0
1986-01-26 22:15:21.150 ,0,1,0.,24.0,0.,24.0,0.,24.0,0.,24.0
1986-01-26 22:15:45.150 ,0,0,0.,24.0,0.,24.0,0.,24.0,0.,24.0
1986-01-26 22:16:09.150 ,1,1,0.,24.0,0.,24.0,0.,24.0,0.,24.0
1986-01-26 22:16:33.150 ,1,0,0.,24.0,0.,24.0,0.,24.0,0.,24.0
1986-01-26 22:16:57.150 ,2,1,0.,24.0,0.,24.0,0.,24.0,0.,24.0
1986-01-26 22:17:21.150 ,2,0,0.,24.0,0.,24.0,0.,24.0,0.,24.0
1986-01-26 22:17:45.150 ,3,1,0.,24.0,0.,24.0,0.,24.0,0.,24.0
1986-01-26 22:18:09.150 ,3,0,0.,24.0,0.,24.0,0.,24.0,0.,24.0
1986-01-26 22:18:33.150 ,4,1,0.,24.0,0.,24.0,0.,24.0,0.,24.0
1986-01-26 22:18:57.150 ,4,0,0.,24.0,0.,24.0,0.,24.0,0.,24.0
1986-01-26 22:19:21.150 ,5,1,0.,24.0,0.,24.0,0.,24.0,0.,24.0
1986-01-26 22:19:45.150 ,5,0,0.,24.0,0.,24.0,0.,24.0,0.,24.0
1986-01-26 22:20:09.150 ,6,1,0.,24.0,0.,24.0,0.,24.0,0.,24.0
1986-01-26 22:20:33.150 ,6,0,0.,24.0,0.,24.0,0.,24.0,0.,24.0
1986-01-26 22:20:57.150 ,7,1,0.,24.0,0.,24.0,0.,24.0,0.,24.0
1986-01-26 22:21:21.150 ,7,0,0.,24.0,0.,24.0,0.,24.0,0.,24.0
1986-01-26 22:21:45.150 ,7,1,0.,24.0,0.,24.0,0.,24.0,0.,24.0
1986-01-26 22:22:09.150 ,7,0,0.,24.0,0.,24.0,0.,24.0,0.,24.0
1986-01-26 22:22:33.150 ,6,1,0.,24.0,0.,24.0,0.,24.0,0.,24.0
1986-01-26 22:22:57.150 ,6,0,0.,24.0,0.,24.0,0.,24.0,0.,24.0
1986-01-26 22:23:21.150 ,5,1,0.,24.0,0.,24.0,0.,24.0,0.,24.0
1986-01-26 22:23:45.150 ,5,0,0.,24.0,0.,24.0,0.,24.0,0.,24.0
1986-01-26 22:24:09.150 ,4,1,0.,24.0,0.,24.0,0.,24.0,0.,24.0
1986-01-26 22:24:33.150 ,4,0,0.,24.0,0.,24.0,0.,24.0,0.,24.0
1986-01-26 22:24:57.150 ,3,1,0.,24.0,0.,24.0,0.,24.0,0.,24.0
1986-01-26 22:25:21.150 ,3,0,0.,24.0,0.,24.0,0.,24.0,0.,24.0
1986-01-26 22:25:45.150 ,2,1,0.,24.0,0.,24.0,0.,24.0,0.,24.0
1986-01-26 22:26:09.150 ,2,0,0.,24.0,0.,24.0,0.,24.0,0.,24.0
1986-01-26 22:26:33.150 ,1,1,0.,24.0,0.,24.0,0.,24.0,0.,24.0
1986-01-26 22:26:57.150 ,1,0,0.,24.0,0.,24.0,0.,24.0,0.,24.0
1986-01-26 22:27:21.150 ,0,1,0.,24.0,0.,24.0,0.,24.0,0.,24.0
1986-01-26 22:27:45.150 ,0,0,0.,24.0,0.,24.0,0.,24.0,0.,24.0
1986-01-26 22:28:09.150 ,0,1,0.,24.0,0.,24.0,0.,24.0,0.,24.0
1986-01-26 22:28:33.150 ,0,0,0.,24.0,0.,24.0,0.,24.0,0.,24.0
1986-01-26 22:28:57.150 ,1,1,0.,24.0,0.,24.0,0.,24.0,0.,24.0
1986-01-26 22:29:21.150 ,1,0,0.,24.0,0.,24.0,0.,24.0,0.,24.0
1986-01-26 22:29:45.150 ,2,1,0.,24.0,0.,24.0,0.,24.0,0.,24.0
1986-01-26 22:30:09.150 ,2,0,0.,24.0,0.,24.0,0.,24.0,0.,24.0
1986-01-26 22:30:33.150 ,3,1,0.,24.0,0.,24.0,0.,24.0,0.,24.0
1986-01-26 22:30:57.150 ,3,0,0.,24.0,0.,24.0,0.,24.0,0.,24.0
1986-01-26 22:31:21.150 ,4,1,0.,24.0,0.,24.0,0.,24.0,0.,24.0
1986-01-26 22:31:45.150 ,4,0,0.,24.0,0.,24.0,0.,24.0,0.,24.0
1986-01-26 22:32:09.150 ,5,1,0.,24.0,0.,24.0,0.,24.0,0.,24.0
1986-01-26 22:32:33.150 ,5,0,0.,24.0,0.,24.0,0.,24.0,0.,24.0
1986-01-26 22:32:57.150 ,6,1,0.,24.0,0.,24.0,0.,24.0,0.,24.0
1986-01-26 22:33:21.150 ,6,0,0.,24.0,0.,24.0,0.,24.0,0.,24.0
1986-01-26 22:33:45.150 ,7,1,0.,24.0,0.,24.0,0.,24.0,0.,24.0
1986-01-26 22:34:09.150 ,7,0,0.,24.0,0.,24.0,0.,24.0,0.,24.0
1986-01-26 22:34:33.150 ,7,1,0.,24.0,0.,24.0,0.,24.0,0.,24.0
1986-01-26 22:34:57.150 ,7,0,0.,24.0,0.,24.0,0.,24.0,0.,24.0
1986-01-26 22:35:21.150 ,6,1,0.,24.0,0.,24.0,0.,24.0,0.,24.0
1986-01-26 22:35:45.150 ,6,0,0.,24.0,0.,24.0,0.,24.0,0.,24.0
1986-01-26 22:36:09.150 ,5,1,0.,24.0,0.,24.0,0.,24.0,0.,24.0
1986-01-26 22:36:33.150 ,5,0,0.,24.0,0.,24.0,0.,24.0,0.,24.0
1986-01-26 22:36:57.150 ,4,1,0.,24.0,0.,24.0,0.,24.0,0.,24.0
1986-01-26 22:37:21.150 ,4,0,0.,24.0,0.,24.0,0.,24.0,0.,24.0
1986-01-26 22:37:45.150 ,3,1,0.,24.0,0.,24.0,0.,24.0,0.,24.0
1986-01-26 22:38:09.150 ,3,0,0.,24.0,0.,24.0,0.,24.0,0.,24.0
1986-01-26 22:38:33.150 ,2,1,0.,24.0,0.,24.0,0.,24.0,0.,24.0
1986-01-26 22:38:57.150 ,2,0,0.,24.0,0.,24.0,0.,24.0,0.,24.0
1986-01-26 22:39:21.150 ,1,1,0.,24.0,0.,24.0,0.,24.0,0.,24.0
1986-01-26 22:39:45.150 ,1,0,0.,24.0,0.,24.0,0.,24.0,0.,24.0
1986-01-26 22:40:09.150 ,0,1,0.,24.0,0.,24.0,0.,24.0,0.,24.0
1986-01-26 22:40:33.150 ,0,0,0.,24.0,0.,24.0,0.,24.0,0.,24.0
1986-01-26 22:40:57.150 ,0,1,0.,24.0,0.,24.0,0.,24.0,0.,24.0
1986-01-26 22:41:21.150 ,0,0,0.,24.0,0.,24.0,0.,24.0,0.,24.0
1986-01-26 22:41:45.150 ,1,1,0.,24.0,0.,24.0,0.,24.0,0.,24.0
1986-01-26 22:42:09.150 ,1,0,0.,24.0,0.,24.0,0.,24.0,0.,24.0
1986-01-26 22:42:33.150 ,2,1,0.,24.0,0.,24.0,0.,24.0,0.,24.0
1986-01-26 22:42:57.150 ,2,0,0.,24.0,0.,24.0,0.,24.0,0.,24.0
1986-01-26 22:43:21.150 ,3,1,0.,24.0,0.,24.0,0.,24.0,0.,24.0
1986-01-26 22:43:45.150 ,3,0,0.,24.0,0.,24.0,0.,24.0,0.,24.0
1986-01-26 22:44:09.150 ,4,1,0.,24.0,0.,24.0,0.,24.0,0.,24.0
1986-01-26 22:44:33.150 ,4,0,0.,24.0,0.,24.0,0.,24.0,0.,24.0
1986-01-26 22:44:57.150 ,5,1,0.,24.0,0.,24.0,0.,24.0,0.,24.0
1986-01-26 22:45:21.150 ,5,0,0.,24.0,0.,24.0,0.,24.0,0.,24.0
1986-01-26 22:45:45.150 ,6,1,0.,24.0,0.,24.0,0.,24.0,0.,24.0
1986-01-26 22:46:09.150 ,6,0,0.,24.0,0.,24.0,0.,24.0,0.,24.0
1986-01-26 22:46:33.150 ,7,1,0.,24.0,0.,24.0,0.,24.0,0.,24.0
1986-01-26 22:46:57.150 ,7,0,0.,24.0,0.,24.0,0.,24.0,0.,24.0
1986-01-26 22:47:21.150 ,7,1,0.,24.0,0.,24.0,0.,24.0,0.,24.0
1986-01-26 22:47:45.150 ,7,0,0.,24.0,0.,24.0,0.,24.0,0.,24.0
1986-01-26 22:48:09.150 ,6,1,0.,24.0,0.,24.0,0.,24.0,0.,24.0
1986-01-26 22:48:33.150 ,6,0,0.,24.0,0.,24.0,0.,24.0,0.,24.0
1986-01-26 22:48:57.150 ,5,1,0.,24.0,0.,24.0,0.,24.0,0.,24.0
1986-01-26 22:49:21.150 ,5,0,0.,24.0,0.,24.0,0.,24.0,0.,24.0
1986-01-26 22:49:45.150 ,4,1,0.,24.0,0.,24.0,0.,24.0,0.,24.0
1986-01-26 22:50:09.150 ,4,0,0.,24.0,0.,24.0,0.,24.0,0.,24.0
1986-01-26 22:50:33.150 ,3,1,0.,24.0,0.,24.0,0.,24.0,0.,24.0
1986-01-26 22:50:57.150 ,3,0,0.,24.0,0.,24.0,0.,24.0,0.,24.0
1986-01-26 22:51:21.150 ,2,1,0.,24.0,0.,24.0,0.,24.0,0.,24.0
1986-01-26 22:51:45.150 ,2,0,0.,24.0,0.,24.0,0.,24.0,0.,24.0
1986-01-26 22:52:09.150 ,1,1,0.,24.0,0.,24.0,0.,24.0,0.,24.0
1986-01-26 22:52:33.150 ,1,0,0.,24.0,0.,24.0,0.,24.0,0.,24.0
1986-01-26 22:52:57.150 ,0,1,0.,24.0,0.,24.0,0.,24.0,0.,24.0
1986-01-26 22:53:21.150 ,0,0,0.,24.0,0.,24.0,0.,24.0,0.,24.0
1986-01-26 22:53:45.150 ,0,1,0.,24.0,0.,24.0,0.,24.0,0.,24.0
1986-01-26 22:54:09.150 ,0,0,0.,24.0,0.,24.0,0.,24.0,0.,24.0
1986-01-26 22:54:33.150 ,1,1,0.,24.0,0.,24.0,0.,24.0,0.,24.0
1986-01-26 22:54:57.150 ,1,0,0.,24.0,0.,24.0,0.,24.0,0.,24.0
1986-01-26 22:55:21.150 ,2,1,0.,24.0,0.,24.0,0.,24.0,0.,24.0
1986-01-26 22:55:45.150 ,2,0,0.,24.0,0.,24.0,0.,24.0,0.,24.0
1986-01-26 22:56:09.150 ,3,1,0.,24.0,0.,24.0,0.,24.0,0.,24.0
1986-01-26 22:56:33.150 ,3,0,0.,24.0,0.,24.0,0.,24.0,0.,24.0
1986-01-26 22:56:57.150 ,4,1,0.,24.0,0.,24.0,0.,24.0,0.,24.0
1986-01-26 22:57:21.150 ,4,0,0.,24.0,0.,24.0,0.,24.0,0.,24.0
1986-01-26 22:57:45.150 ,5,1,0.,24.0,0.,24.0,0.,24.0,0.,24.0
1986-01-26 22:58:09.150 ,5,0,0.,24.0,0.,24.0,0.,24.0,0.,24.0
1986-01-26 22:58:33.150 ,6,1,0.,24.0,0.,24.0,0.,24.0,0.,24.0
1986-01-26 22:58:57.150 ,6,0,0.,24.0,0.,24.0,0.,24.0,0.,24.0
1986-01-26 22:59:21.150 ,7,1,0.,24.0,0.,24.0,0.,24.0,0.,24.0
1986-01-26 22:59:45.150 ,7,0,0.,24.0,0.,24.0,0.,24.0,0.,24.0
1986-01-26 23:00:09.150 ,7,1,0.,24.0,0.,24.0,0.,24.0,0.,24.0
1986-01-26 23:00:33.150 ,7,0,0.,24.0,0.,24.0,0.,24.0,0.,24.0
1986-01-26 23:00:57.150 ,6,1,0.,24.0,0.,24.0,0.,24.0,0.,24.0
1986-01-26 23:01:21.150 ,6,0,0.,24.0,0.,24.0,0.,24.0,0.,24.0
1986-01-26 23:01:45.150 ,5,1,0.,24.0,0.,24.0,0.,24.0,0.,24.0
1986-01-26 23:02:09.150 ,5,0,0.,24.0,0.,24.0,0.,24.0,0.,24.0
1986-01-26 23:02:33.150 ,4,1,0.,24.0,0.,24.0,0.,24.0,0.,24.0
1986-01-26 23:02:57.150 ,4,0,0.,24.0,0.,24.0,0.,24.0,0.,24.0
1986-01-26 23:03:21.150 ,3,1,0.,24.0,0.,24.0,0.,24.0,0.,24.0
1986-01-26 23:03:45.150 ,3,0,0.,24.0,0.,24.0,0.,24.0,0.,24.0
1986-01-26 23:04:09.150 ,2,1,0.,24.0,0.,24.0,0.,24.0,0.,24.0
1986-01-26 23:04:33.150 ,2,0,0.,24.0,0.,24.0,0.,24.0,0.,24.0
1986-01-26 23:04:57.150 ,1,1,0.,24.0,0.,24.0,0.,24.0,0.,24.0
1986-01-26 23:05:21.150 ,1,0,0.,24.0,0.,24.0,0.,24.0,0.,24.0
1986-01-26 23:05:45.150 ,0,1,0.,24.0,0.,24.0,0.,24.0,0.,24.0
1986-01-26 23:06:09.150 ,0,0,0.,24.0,0.,24.0,0.,24.0,0.,24.0
1986-01-26 23:06:33.150 ,0,1,0.,24.0,0.,24.0,0.,24.0,0.,24.0
1986-01-26 23:06:57.150 ,0,0,0.,24.0,0.,24.0,0.,24.0,0.,24.0
1986-01-26 23:07:21.150 ,1,1,0.,24.0,0.,24.0,0.,24.0,0.,24.0
1986-01-26 23:07:45.150 ,1,0,0.,24.0,0.,24.0,0.,24.0,0.,24.0
1986-01-26 23:08:09.150 ,2,1,0.,24.0,0.,24.0,0.,24.0,0.,24.0
1986-01-26 23:08:33.150 ,2,0,0.,24.0,0.,24.0,0.,24.0,0.,24.0
1986-01-26 23:08:57.150 ,3,1,0.,24.0,0.,24.0,0.,24.0,0.,24.0
1986-01-26 23:09:21.150 ,3,0,0.,24.0,0.,24.0,0.,24.0,0.,24.0
1986-01-26 23:09:45.150 ,4,1,0.,24.0,0.,24.0,0.,24.0,0.,24.0
1986-01-26 23:10:09.150 ,4,0,0.,24.0,0.,24.0,0.,24.0,0.,24.0
1986-01-26 23:10:33.150 ,5,1,0.,24.0,0.,24.0,0.,24.0,0.,24.0
1986-01-26 23:10:57.150 ,5,0,0.,24.0,0.,24.0,0.,24.0,0.,24.0
1986-01-26 23:11:21.150 ,6,1,0.,24.0,0.,24.0,0.,24.0,0.,24.0
1986-01-26 23:11:45.150 ,6,0,0.,24.0,0.,24.0,0.,24.0,0.,24.0
1986-01-26 23:12:09.150 ,7,1,0.,24.0,0.,24.0,0.,24.0,0.,24.0
1986-01-26 23:12:33.150 ,7,0,0.,24.0,0.,24.0,0.,24.0,0.,24.0
1986-01-26 23:12:57.150 ,7,1,0.,24.0,0.,24.0,0.,24.0,0.,24.0
1986-01-26 23:13:21.150 ,7,0,0.,24.0,0.,24.0,0.,24.0,0.,24.0
1986-01-26 23:13:45.150 ,6,1,0.,24.0,0.,24.0,0.,24.0,0.,24.0
1986-01-26 23:14:09.150 ,6,0,0.,24.0,0.,24.0,0.,24.0,0.,24.0
1986-01-26 23:14:33.150 ,5,1,0.,24.0,0.,24.0,0.,24.0,0.,24.0
1986-01-26 23:14:57.150 ,5,0,0.,24.0,0.,24.0,0.,24.0,0.,24.0
1986-01-26 23:15:21.150 ,4,1,0.,24.0,0.,24.0,0.,24.0,0.,24.0
1986-01-26 23:15:45.150 ,4,0,0.,24.0,0.,24.0,0.,24.0,0.,24.0
1986-01-26 23:16:09.150 ,3,1,0.,24.0,0.,24.0,0.,24.0,0.,24.0
1986-01-26 23:16:33.150 ,3,0,0.,24.0,0.,24.0,0.,24.0,0.,24.0
1986-01-26 23:16:57.150 ,2,1,0.,24.0,0.,24.0,0.,24.0,0.,24.0
1986-01-26 23:17:21.150 ,2,0,0.,24.0,0.,24.0,0.,24.0,0.,24.0
1986-01-26 23:17:45.150 ,1,1,0.,24.0,0.,24.0,0.,24.0,0.,24.0
1986-01-26 23:18:09.150 ,1,0,0.,24.0,0.,24.0,0.,24.0,0.,24.0
1986-01-26 23:18:33.150 ,0,1,0.,24.0,0.,24.0,0.,24.0,0.,24.0
1986-01-26 23:18:57.150 ,0,0,0.,24.0,0.,24.0,0.,24.0,0.,24.0
1986-01-26 23:19:21.150 ,0,1,0.,24.0,0.,24.0,0.,24.0,0.,24.0
1986-01-26 23:19:45.150 ,0,0,0.,24.0,0.,24.0,0.,24.0,0.,24.0
1986-01-26 23:20:09.150 ,1,1,0.,24.0,0.,24.0,0.,24.0,0.,24.0
1986-01-26 23:20:33.150 ,1,0,0.,24.0,0.,24.0,0.,24.0,0.,24.0
1986-01-26 23:20:57.150 ,2,1,0.,24.0,0.,24.0,0.,24.0,0.,24.0
1986-01-26 23:21:21.150 ,2,0,0.,24.0,0.,24.0,0.,24.0,0.,24.0
1986-01-26 23:21:45.150 ,3,1,0.,24.0,0.,24.0,0.,24.0,0.,24.0
1986-01-26 23:22:09.150 ,3,0,0.,24.0,0.,24.0,0.,24.0,0.,24.0
1986-01-26 23:22:33.150 ,4,1,0.,24.0,0.,24.0,0.,24.0,0.,24.0
1986-01-26 23:22:57.150 ,4,0,0.,24.0,0.,24.0,0.,24.0,0.,24.0
1986-01-26 23:23:21.150 ,5,1,0.,24.0,0.,24.0,0.,24.0,0.,24.0
1986-01-26 23:23:45.150 ,5,0,0.,24.0,0.,24.0,0.,24.0,0.,24.0
1986-01-26 23:24:09.150 ,6,1,0.,24.0,0.,24.0,0.,24.0,0.,24.0
1986-01-26 23:24:33.150 ,6,0,0.,24.0,0.,24.0,0.,24.0,0.,24.0
1986-01-26 23:24:57.150 ,7,1,0.,24.0,0.,24.0,0.,24.0,0.,24.0
1986-01-26 23:25:21.150 ,7,0,0.,24.0,0.,24.0,0.,24.0,0.,24.0
1986-01-26 23:25:45.150 ,7,1,0.,24.0,0.,24.0,0.,24.0,0.,24.0
1986-01-26 23:26:09.150 ,7,0,0.,24.0,0.,24.0,0.,24.0,0.,24.0
1986-01-26 23:26:33.150 ,6,1,0.,24.0,0.,24.0,0.,24.0,0.,24.0
1986-01-26 23:26:57.150 ,6,0,0.,24.0,0.,24.0,0.,24.0,0.,24.0
1986-01-26 23:27:21.150 ,5,1,0.,24.0,0.,24.0,0.,24.0,0.,24.0
1986-01-26 23:27:45.150 ,5,0,0.,24.0,0.,24.0,0.,24.0,0.,24.0
1986-01-26 23:28:09.150 ,4,1,0.,24.0,0.,24.0,0.,24.0,0.,24.0
1986-01-26 23:28:33.150 ,4,0,0.,24.0,0.,24.0,0.,24.0,0.,24.0
1986-01-26 23:28:57.150 ,3,1,0.,24.0,0.,24.0,0.,24.0,0.,24.0
1986-01-26 23:29:21.150 ,3,0,0.,24.0,0.,24.0,0.,24.0,0.,24.0
1986-01-26 23:29:45.150 ,2,1,0.,24.0,0.,24.0,0.,24.0,0.,24.0
1986-01-26 23:30:09.150 ,2,0,0.,24.0,0.,24.0,0.,24.0,0.,24.0
1986-01-26 23:30:33.150 ,1,1,0.,24.0,0.,24.0,0.,24.0,0.,24.0
1986-01-26 23:30:57.150 ,1,0,0.,24.0,0.,24.0,0.,24.0,0.,24.0
1986-01-26 23:31:21.150 ,0,1,0.,24.0,0.,24.0,0.,24.0,0.,24.0
1986-01-26 23:31:45.150 ,0,0,0.,24.0,0.,24.0,0.,24.0,0.,24.0
1986-01-26 23:32:09.150 ,0,1,0.,24.0,0.,24.0,0.,24.0,0.,24.0
1986-01-26 23:32:33.150 ,0,0,0.,24.0,0.,24.0,0.,24.0,0.,24.0
1986-01-26 23:32:57.150 ,1,1,0.,24.0,0.,24.0,0.,24.0,0.,24.0
1986-01-26 23:33:21.150 ,1,0,0.,24.0,0.,24.0,0.,24.0,0.,24.0
1986-01-26 23:33:45.150 ,2,1,0.,24.0,0.,24.0,0.,24.0,0.,24.0
1986-01-26 23:34:09.150 ,2,0,0.,24.0,0.,24.0,0.,24.0,0.,24.0
1986-01-26 23:34:33.150 ,3,1,0.,24.0,0.,24.0,0.,24.0,0.,24.0